Overview Statistics Trail Chart Weather Telemetry Raw packets
 

This is the latest recevied weather packets stored in our database for station/object SV2RCS-13. If no packets are shown the sender has not sent any weather packets the latest 10 day(s).

<< 10 11 12 13 14 15 16 >>
Time Temp. Humidity Pressure Rain* Wind** Luminosity Snow
1788229539 23.33° C 52% 1014.2 hPa - - - -
1788228939 22.78° C 52% 1014.2 hPa - - - -
1788228339 23.33° C 51% 1014.2 hPa - - - -
1788227739 23.89° C 51% 1014.1 hPa - - - -
1788227140 23.89° C 52% 1014.2 hPa - - - -
1788226540 23.33° C 52% 1014.3 hPa - - - -
1788225939 23.89° C 51% 1014.3 hPa - - - -
1788225339 23.89° C 52% 1014.3 hPa - - - -
1788224739 23.89° C 52% 1014.5 hPa - - - -
1788224139 23.89° C 52% 1014.4 hPa - - - -
1788223540 23.89° C 52% 1014.4 hPa - - - -
1788222939 23.89° C 52% 1014.4 hPa - - - -
1788222339 24.44° C 51% 1014.3 hPa - - - -
1788221740 24.44° C 51% 1014.3 hPa - - - -
1788221139 24.44° C 51% 1014.2 hPa - - - -
1788220540 23.89° C 51% 1014.4 hPa - - - -
1788219939 24.44° C 51% 1014.4 hPa - - - -
1788219339 24.44° C 51% 1014.4 hPa - - - -
1788218755 23.89° C 52% 1014.4 hPa - - - -
1788218139 24.44° C 51% 1014.4 hPa - - - -
1788217539 24.44° C 52% 1014.3 hPa - - - -
1788216960 24.44° C 50% 1014.3 hPa - - - -
1788216339 24.44° C 50% 1014.4 hPa - - - -
1788215740 24.44° C 50% 1014.3 hPa - - - -
1788215139 25° C 50% 1014.3 hPa - - - -

* Rain since midnight (hover to see other rain measurements)
** Current wind speed in m/s (hover to see current wind gust speed)